SPACEBEE-141 (52400 NORAD) Tracking and Keplerian Element Data
This shows tracking and keplerian element data for the satellite.
Feedback or suggestion? Click here.
Element | Value |
Catalog | 52400 |
Name | SPACEBEE-141 |
Epoch Orbit | 1203 |
Epoch Day | 192.80478877 |
Epoch Year | 2022 |
RAAN | 277.1712 |
Inclination | 97.4505 |
Eccentricity | 0.0010704 |
Argument of Perigee | 92.1393 |
Mean Anonmoly | 268.1064 |
Mean Motion | 15.13810058 |
Decay Rate | 7.101E-05 |
L1 | 1 52400U 22047G 22192.80478877 .00007101 00000+0 39619-3 0 9990 |
L2 | 2 52400 97.4505 277.1712 0010704 92.1393 268.1064 15.13810058 12034 |
Live tracking and technical data element details for SPACEBEE-141 (NORAD 52400). SPACEBEE-141 can be tracked NOW for your location showing map with azimuth and elevation plus other details from your city location.
Track the satellite on the map from your city or location and see movement details for azimuth, elevation, latitude, longitude, range, height, and movement on the map or in text.
IsCatalogInMostPopularTable: catalog: 52400, numindb: 5
Update: records affected: 1
GetName: 52400 SPACEBEE-141
Hit Count: updated at: Sun, 14 Aug 2022 00:53:48 GMT